Lexington Weather

Lexington, Massachusetts, USA

33°F
12/8/2019 3:53pm 
  • Lexington Conditions: Mostly cloudy
  • Temperature: 32.7°F / 0.4°CColder 1.1°F than last hour.
  • Dew Point: 17.1°FIncreased 2.4°Fsince last hour.
  • Relative Humidity: 52%Increased 7.0% since last hour.
  • Wind: Wind from SW SW 5 mph, 10-min avg: 2 mph, gust: 6 mph
  • Barometer: 30.40 in Steady
  • Visibility: 10 miles
  • Snow Today: 0.0 in
  •   

Regional Weather Roundup
for Boston / Norton, MA

        
000
ASUS41 KBOX 082001
RWRBOX

REGIONAL WEATHER ROUNDUP
NATIONAL WEATHER SERVICE BOSTON/NORTON MA
300 PM EST SUN DEC 08 2019

NOTE:  "FAIR" INDICATES FEW OR NO CLOUDS BELOW 12,000 FEET WITH NO 
SIGNIFICANT WEATHER AND/OR OBSTRUCTIONS TO VISIBILITY.

MAZALL-082100-
EASTERN MASSACHUSETTS
  
CITY           SKY/WX    TMP DP  RH WIND       PRES   REMARKS
BOSTON         CLOUDY    36  15  42 SW13      30.44F WCI  27          
BEVERLY        FAIR      34  10  37 S13       30.43S WCI  25          
LAWRENCE       FAIR      33   8  35 S7        30.43F WCI  27          
BEDFORD        MOCLDY    34   7  32 S7        30.42S WCI  28          
BLUE HILL        N/A     31  19  61 S14G23    30.40S WCI  21          
NORWOOD        FAIR      37  18  46 S7        30.44F WCI  32          
MARSHFIELD     NOT AVBL                                               
PLYMOUTH       FAIR      35  24  64 S8        30.45F WCI  29          
TAUNTON        FAIR      36  23  59 SW9       30.46S WCI  29          
NEW BEDFORD    FAIR      36  25  64 S9G20     30.46F WCI  29          
$$

MAZALL-082100-
CAPE COD AND THE ISLANDS
  
CITY           SKY/WX    TMP DP  RH WIND       PRES   REMARKS
FALMOUTH       CLEAR     36  23  60 SW15G21   30.47F WCI  26          
HYANNIS        NOT AVBL                                               
CHATHAM        FAIR      34  22  61 SW10G18   30.49S WCI  26          
PROVINCETOWN   FAIR      35  23  61 SW13G20   30.47S WCI  26          
NANTUCKET      FAIR      35  24  64 S13       30.50S WCI  26          
MARTHAS VNYRD  FAIR      37  24  59 S14       30.48F WCI  28          
$$
 
MAZALL-082100-
CENTRAL AND WESTERN MASSACHUSETTS
  
CITY           SKY/WX    TMP DP  RH WIND       PRES   REMARKS
WORCESTER      FAIR      28   7  41 SW12      30.38S WCI  18          
FITCHBURG      FAIR      31   8  38 S8        30.41S WCI  23          
ORANGE         FAIR      30  11  45 S10       30.40S WCI  21          
SPRINGFIELD    PTSUNNY   30  13  49 S12       30.41S WCI  21          
WESTFIELD      FAIR      31  15  52 S9        30.41F WCI  23          
NORTH ADAMS    FAIR      33  11  39 E10G18    30.34F WCI  25          
PITTSFIELD     FAIR      31  12  45 S7G18     30.31F WCI  24          
$$
 
RIZALL-082100-
RHODE ISLAND
  
CITY           SKY/WX    TMP DP  RH WIND       PRES   REMARKS
PROVIDENCE     PTSUNNY   36  23  59 SW10      30.46F WCI  28          
NEWPORT        PTSUNNY   38  25  59 S9        30.45F WCI  31          
BLOCK ISLAND   PTSUNNY   38  26  62 SW9       30.47F WCI  31          
SMITHFIELD     FAIR      33  18  53 VRB5      30.43F WCI  29          
WESTERLY       FAIR      38  25  59 SW6       30.47F                  
$$
 
CTZALL-082100-
CONNECTICUT
  
CITY           SKY/WX    TMP DP  RH WIND       PRES   REMARKS
BRADLEY INTL   PTSUNNY   38  14  37 S13       30.43S WCI  30          
HARTFORD       FAIR      34  18  52 S12G20    30.46R WCI  25          
BRIDGEPORT     FAIR      38  22  52 S10       30.47S WCI  31          
DANBURY        FAIR      34  20  56 SE3       30.43F                  
GROTON         NOT AVBL                                               
NEW HAVEN      FAIR      39  21  48 SW7       30.47S                  
CHESTER        FAIR      34  16  47 VRB6      30.45S WCI  29          
MERIDEN        FAIR      33  19  56 SW10      30.46S WCI  25          
WILLIMANTIC    FAIR      33   8  35 S9        30.46S WCI  25          
OXFORD         FAIR      32  18  56 S10       30.43R WCI  24          
$$

MEZ002-015-021-024-NHZ003-005-008-011-012-014-VTZ005-008-082100-
NORTHERN NEW ENGLAND
  
CITY           SKY/WX    TMP DP  RH WIND       PRES   REMARKS
PORTLAND ME    MOCLDY    34  10  37 S7        30.41S WCI  28          
BANGOR ME      MOCLDY    31  15  52 S8        30.37F WCI  23          
CONCORD NH     FAIR      29   8  41 SE9       30.38F WCI  20          
MANCHESTER NH  MOCLDY    33   7  33 S10       30.39R WCI  25          
NASHUA NH      FAIR      32   8  36 VRB3      30.41S                  
PORTSMOUTH NH  MOCLDY    31   4  31 S7        30.41R WCI  24          
JAFFREY NH     FAIR      28  32 100 S13G22    30.36R WCI  17          
KEENE NH       FAIR      30  14  51 SE7       30.38S WCI  23          
BURLINGTON VT  CLOUDY    31  12  45 S15G26    30.23F WCI  20          
MT. WASHINGTON MOCLDY    16  -2  45 SW54G62     N/A  WCI  -9          
$$

NYZ052-076-082100-
EASTERN NEW YORK
  
CITY           SKY/WX    TMP DP  RH WIND       PRES   REMARKS
ALBANY         CLOUDY    33  16  49 S16       30.34F WCI  23          
NEW YORK CITY  PTSUNNY   41  24  51 S16G22    30.44F                  
$$
 
ANZALL-082100-
MARINE OBSERVATIONS
  
STATION/POSITION TIME  TEMP    WIND        PRES    VSBY  WAVE
                       AIR SEA DIR/SP/G                  HT/PER
                 (UTC) (F)     (DEG/KT/KT) (MB)    (MI)  (FT/S)
BOSTON BUOY      1850   36 47  190/ 12/ 16 1030.8          1/ 2
BUZZARDS BAY     1900   37     220/ 14/ 16 1032.4F
NANTUCKET SOUND  1940      44              1032.5F
MASS BAY-STELLWA 1904   35 46  230/ 14/ 17 1029.3F  1 7/8  2/ 3
ISLE OF SHOALS   1900   33     200/ 14/ 16 1029.8F
S OF BLOCK IS    1930      52                N/A           1/ 3
$$

......................KEY.........................
  SKY/WX - SKY CONDITION/PRESENT WEATHER
  TMP    - TEMPERATURE IN FAHRENHEIT
  DWPT   - DEWPOINT IN FAHRENHEIT
  RH     - RELATIVE HUMIDITY IN PERCENT
  WIND   - DIRECTION AND SPEED IN MPH
  PRES   - MEAN SEA LEVEL PRESSURE IN INCHES OF HG
  WCI    - WIND CHILL INDEX
  VSB    - VISIBILITY IN MILES
  HX     - HEAT INDEX
  TC     - TEMPERATURE IN CELSIUS
  VRB    - VARIABLE WIND DIRECTION
  N/A    - NOT AVAILABLE
  
      

Other recent Regional Weather Roundups

Sun Dec 8, 3:10pm

Sun Dec 8, 2:10pm

Sun Dec 8, 2:01pm

Sun Dec 8, 1:10pm

Sun Dec 8, 1:00pm

Sun Dec 8, 12:10pm

Sun Dec 8, 12:01pm

Sun Dec 8, 11:10am

Sun Dec 8, 11:00am

Sun Dec 8, 10:10am

Sun Dec 8, 10:01am

Sun Dec 8, 9:10am

Sun Dec 8, 9:00am

Sun Dec 8, 8:10am

Sun Dec 8, 8:00am

Sun Dec 8, 7:10am

Sun Dec 8, 7:00am

Sun Dec 8, 6:10am

Sun Dec 8, 6:00am

Sun Dec 8, 5:10am

Sun Dec 8, 5:00am

Sun Dec 8, 4:10am

Sun Dec 8, 4:00am

Sun Dec 8, 3:10am

Sun Dec 8, 3:00am

Sun Dec 8, 2:10am

Sun Dec 8, 2:00am

Sun Dec 8, 1:10am

Sun Dec 8, 1:00am

Sun Dec 8, 12:10am

Sun Dec 8, 12:01am

Sat Dec 7, 11:10pm

Sat Dec 7, 11:00pm

Sat Dec 7, 10:10pm

Sat Dec 7, 10:00pm

Sat Dec 7, 9:10pm

Sat Dec 7, 9:00pm

Sat Dec 7, 8:10pm

Sat Dec 7, 8:00pm

Sat Dec 7, 7:10pm

Sat Dec 7, 7:00pm

Sat Dec 7, 6:10pm

Sat Dec 7, 6:00pm

Sat Dec 7, 5:10pm

Sat Dec 7, 5:00pm

Sat Dec 7, 4:10pm

Sat Dec 7, 4:00pm

Sat Dec 7, 3:10pm

Sat Dec 7, 3:00pm

Sat Dec 7, 2:10pm

Sat Dec 7, 2:01pm

Sat Dec 7, 1:10pm

Sat Dec 7, 1:00pm

Sat Dec 7, 12:10pm

Sat Dec 7, 12:01pm

Sat Dec 7, 11:10am

Sat Dec 7, 11:00am

Sat Dec 7, 10:10am

Sat Dec 7, 10:01am

Sat Dec 7, 9:10am

Sat Dec 7, 9:00am

Sat Dec 7, 8:10am

Sat Dec 7, 8:00am

Sat Dec 7, 7:10am

Sat Dec 7, 7:00am

Sat Dec 7, 6:10am

Sat Dec 7, 6:00am

Sat Dec 7, 5:10am

Sat Dec 7, 5:00am

Sat Dec 7, 4:10am

Sat Dec 7, 4:00am

Sat Dec 7, 3:10am

Sat Dec 7, 3:00am

Sat Dec 7, 2:10am

Sat Dec 7, 2:01am

Sat Dec 7, 1:10am

Sat Dec 7, 1:00am

Sat Dec 7, 12:10am

Sat Dec 7, 12:01am

Fri Dec 6, 11:10pm

Fri Dec 6, 11:00pm

Fri Dec 6, 10:10pm

Fri Dec 6, 10:00pm

Fri Dec 6, 9:10pm

Fri Dec 6, 9:00pm

Fri Dec 6, 8:10pm

Fri Dec 6, 8:00pm

Fri Dec 6, 7:10pm

Fri Dec 6, 7:01pm

Fri Dec 6, 6:10pm

Fri Dec 6, 6:00pm

Fri Dec 6, 5:10pm

Fri Dec 6, 5:00pm

Fri Dec 6, 4:10pm

Fri Dec 6, 4:00pm

Fri Dec 6, 3:10pm

Fri Dec 6, 3:00pm

Fri Dec 6, 2:10pm

Fri Dec 6, 2:00pm

Fri Dec 6, 1:10pm

Fri Dec 6, 1:00pm

Fri Dec 6, 12:10pm

Fri Dec 6, 12:00pm

Fri Dec 6, 11:10am

Fri Dec 6, 11:00am

Fri Dec 6, 10:10am

Fri Dec 6, 10:00am

Fri Dec 6, 9:10am

Fri Dec 6, 9:00am

Fri Dec 6, 8:10am

Fri Dec 6, 8:00am

Fri Dec 6, 7:10am

Fri Dec 6, 7:00am

Fri Dec 6, 6:10am

Fri Dec 6, 6:01am

Fri Dec 6, 5:10am

Fri Dec 6, 5:00am

Fri Dec 6, 4:10am

Fri Dec 6, 4:00am

Fri Dec 6, 3:10am

Fri Dec 6, 3:00am

Fri Dec 6, 2:10am

Fri Dec 6, 2:00am

Fri Dec 6, 1:10am

Fri Dec 6, 1:00am

Fri Dec 6, 12:10am

Fri Dec 6, 12:00am

Thu Dec 5, 11:10pm

Thu Dec 5, 11:00pm

Thu Dec 5, 10:10pm

Thu Dec 5, 10:01pm

Thu Dec 5, 9:10pm

Thu Dec 5, 9:01pm

Thu Dec 5, 8:10pm

Thu Dec 5, 8:00pm

Thu Dec 5, 7:10pm

Thu Dec 5, 7:00pm

Thu Dec 5, 6:10pm

Thu Dec 5, 6:00pm

Thu Dec 5, 5:10pm

Thu Dec 5, 5:00pm

Thu Dec 5, 4:10pm

Thu Dec 5, 4:00pm

Meta data:

ID: 470f0552-fbb8-4b38-809c-6a451835b334
Link: https://api.weather.gov/products/470f0552-fbb8-4b38-809c-6a451835b334